DW7854 Weather Reports


time (UTC)temp
F
wind
direction
speed
knots
gust
knots
rain 1hr
in
rain 24hr
in
rain mn
in
humidity
%
barometer
mb
20260503013108 64 5 0.0 0.0 0.00 0.00 0.00 59 1017.5
20260503012928 65 0 0.0 0.0 0.00 0.00 0.00 59 1017.2
20260503011609 65 5 0.0 1.7 0.00 0.00 0.00 56 1017.4
20260503011128 66 6 0.9 1.7 0.00 0.00 0.00 55 1017.1
20260503010228 68 5 0.0 0.9 0.00 0.00 0.00 53 1017.0
20260503010006 67 5 0.0 0.9 0.00 0.00 0.00 52 1017.3
20260503004509 69 329 0.0 1.7 0.00 0.00 0.00 49 1017.1
20260503004428 70 328 0.0 1.7 0.00 0.00 0.00 48 1016.8
20260503003528 70 328 0.0 0.9 0.00 0.00 0.00 50 1016.7
20260503003104 70 329 0.0 2.6 0.00 0.00 0.00 48 1017.0
20260503002628 71 344 1.7 3.5 0.00 0.00 0.00 45 1016.6
20260503001728 72 334 1.7 4.3 0.00 0.00 0.00 42 1016.6
20260503001605 71 320 2.6 4.3 0.00 0.00 0.00 41 1016.9
20260503000828 72 334 2.6 5.2 0.00 0.00 0.00 41 1016.6
20260503000008 72 337 2.6 7.0 0.00 0.00 0.00 40 1016.9
20260502235928 73 330 2.6 7.0 0.00 0.00 0.00 40 1016.5
20260502235028 74 322 1.7 6.1 0.00 0.00 0.00 40 1016.6
20260502234605 73 274 0.9 6.1 0.00 0.00 0.00 41 1016.9
20260502234128 74 328 3.5 6.1 0.00 0.00 0.00 38 1016.6
20260502233228 74 319 3.5 6.1 0.00 0.00 0.00 37 1016.5
20260502233003 74 13 2.6 7.0 0.00 0.00 0.00 37 1016.9
20260502231615 74 294 0.9 9.6 0.00 0.00 0.00 38 1016.9
20260502231428 75 325 3.5 9.6 0.00 0.00 0.00 36 1016.5
20260502224728 76 319 3.5 7.8 0.00 0.00 0.00 34 1016.7
20260502224503 75 5 2.6 7.8 0.00 0.00 0.00 35 1017.0
20260502223828 76 319 2.6 7.0 0.00 0.00 0.00 34 1016.7
20260502223003 75 319 2.6 6.1 0.00 0.00 0.00 34 1016.9
20260502222928 76 333 2.6 6.1 0.00 0.00 0.00 34 1016.6
20260502222028 76 340 4.3 8.7 0.00 0.00 0.00 34 1016.5
20260502221505 75 334 4.3 8.7 0.00 0.00 0.00 33 1016.9
20260502221128 76 323 3.5 7.0 0.00 0.00 0.00 33 1016.6
20260502220228 76 323 4.3 9.6 0.00 0.00 0.00 35 1016.7
20260502215328 76 311 4.3 10.4 0.00 0.00 0.00 33 1016.7
20260502214608 76 11 2.6 6.1 0.00 0.00 0.00 34 1017.0
20260502214428 76 301 2.6 7.0 0.00 0.00 0.00 34 1016.7
20260502213528 76 320 3.5 7.0 0.00 0.00 0.00 35 1016.8
20260502213113 76 331 4.3 8.7 0.00 0.00 0.00 33 1017.2
20260502211728 75 321 2.6 7.0 0.00 0.00 0.00 37 1016.9
20260502211605 75 314 0.9 7.0 0.00 0.00 0.00 36 1017.3
20260502210828 75 355 3.5 7.0 0.00 0.00 0.00 35 1017.0
20260502210020 75 56 1.7 8.7 0.00 0.00 0.00 36 1017.5
20260502205928 75 325 1.7 8.7 0.00 0.00 0.00 33 1017.1
20260502205028 74 326 2.6 7.0 0.00 0.00 0.00 36 1017.2
20260502204618 74 316 4.3 7.0 0.00 0.00 0.00 35 1017.7
20260502204128 74 316 2.6 6.1 0.00 0.00 0.00 36 1017.4
20260502203228 74 314 3.5 7.0 0.00 0.00 0.00 37 1017.6
20260502203014 74 349 2.6 7.0 0.00 0.00 0.00 37 1018.0
20260502202328 74 312 3.5 11.3 0.00 0.00 0.00 35 1017.7
20260502201604 74 244 1.7 7.8 0.00 0.00 0.00 36 1018.1
20260502201428 75 319 3.5 7.0 0.00 0.00 0.00 36 1017.8
20260502200528 75 326 2.6 8.7 0.00 0.00 0.00 35 1017.9
20260502200106 74 270 1.7 9.6 0.00 0.00 0.00 36 1018.4
20260502195628 74 318 2.6 7.8 0.00 0.00 0.00 35 1018.1
20260502194728 74 334 2.6 7.8 0.00 0.00 0.00 38 1018.1
20260502194603 73 322 3.5 7.8 0.00 0.00 0.00 38 1018.6
20260502193828 74 279 1.7 7.0 0.00 0.00 0.00 36 1018.3
20260502193003 74 200 2.6 6.1 0.00 0.00 0.00 39 1018.7
20260502192028 74 263 1.7 4.3 0.00 0.00 0.00 38 1018.4
20260502191510 74 224 0.9 5.2 0.00 0.00 0.00 41 1018.8
20260502191128 74 349 3.5 9.6 0.00 0.00 0.00 37 1018.4
20260502190227 74 312 2.6 7.0 0.00 0.00 0.00 38 1018.6
20260502190107 73 298 3.5 7.0 0.00 0.00 0.00 36 1018.9
20260502185328 74 333 2.6 5.2 0.00 0.00 0.00 37 1018.6
20260502184513 74 18 2.6 5.2 0.00 0.00 0.00 35 1019.2
20260502184428 74 302 2.6 7.8 0.00 0.00 0.00 35 1018.7
20260502183527 74 268 2.6 7.8 0.00 0.00 0.00 43 1018.8
20260502183009 73 268 1.7 7.8 0.00 0.00 0.00 43 1019.3
20260502182628 73 320 2.6 7.8 0.00 0.00 0.00 37 1018.9
20260502181727 73 271 1.7 5.2 0.00 0.00 0.00 38 1019.0
20260502181609 72 219 1.7 5.2 0.00 0.00 0.00 36 1019.4
20260502180827 72 318 2.6 6.1 0.00 0.00 0.00 39 1019.1
20260502170110 70 277 3.5 7.8 0.00 0.00 0.00 40 1020.1
20260502163827 71 45 1.7 6.1 0.00 0.00 0.00 41 1019.6
20260502163103 70 93 0.0 7.8 0.00 0.00 0.00 39 1020.0
20260502162927 70 330 3.5 7.0 0.00 0.00 0.00 38 1019.6
20260502162027 70 317 2.6 7.0 0.00 0.00 0.00 41 1019.7
20260502161503 70 333 3.5 7.8 0.00 0.00 0.00 42 1020.1
20260502160227 70 343 1.7 5.2 0.00 0.00 0.00 44 1019.7
20260502160105 69 5 0.9 5.2 0.00 0.00 0.00 47 1020.1
20260502151611 67 22 1.7 4.3 0.00 0.00 0.00 60 1019.9
20260502150106 66 47 3.5 7.0 0.00 0.00 0.00 62 1019.9
20260502140105 60 128 0.0 1.7 0.00 0.00 0.00 97 1019.8
20260502130227 53 60 0.0 0.9 0.00 0.00 0.00 97 1019.0
20260502123527 50 76 0.0 0.9 0.00 0.00 0.00 96 1018.5
20260502123003 49 76 0.0 0.0 0.00 0.00 0.00 96 1018.8
20260502122627 49 0 0.0 0.0 0.00 0.00 0.00 96 1018.3
20260502121727 49 0 0.0 0.0 0.00 0.00 0.00 96 1018.2
20260502121530 48 76 0.0 0.0 0.00 0.00 0.00 95 1018.6
20260502120827 49 19 0.0 0.9 0.00 0.00 0.00 95 1018.0
20260502120106 48 10 0.0 0.9 0.00 0.00 0.00 95 1018.4
20260502115927 49 20 0.0 0.9 0.00 0.00 0.00 95 1017.9
20260502114605 48 329 0.0 0.0 0.00 0.00 0.00 95 1018.2
20260502114127 49 0 0.0 0.0 0.00 0.00 0.00 95 1017.7
20260502113227 49 0 0.0 0.0 0.00 0.00 0.00 95 1017.7
20260502113004 49 329 0.0 0.0 0.00 0.00 0.00 95 1018.2
20260502112327 49 328 0.0 0.9 0.00 0.00 0.00 95 1017.7
20260502111625 49 329 0.0 1.7 0.00 0.00 0.00 95 1018.0
20260502111427 49 329 0.9 1.7 0.00 0.00 0.00 95 1017.5
20260502110008 49 329 0.0 0.0 0.00 0.00 0.00 95 1017.7
20260502105627 50 0 0.0 0.0 0.00 0.00 0.00 95 1017.3
20260502104727 50 328 0.0 0.9 0.00 0.00 0.00 94 1017.2
20260502104505 49 329 0.0 0.9 0.00 0.00 0.00 94 1017.7
20260502103827 50 0 0.0 0.0 0.00 0.00 0.00 95 1017.2
20260502103005 50 329 0.0 0.0 0.00 0.00 0.00 95 1017.6
20260502102927 50 0 0.0 0.0 0.00 0.00 0.00 95 1017.2
20260502101512 50 329 0.0 0.9 0.00 0.00 0.00 95 1017.4
20260502101127 50 328 0.0 0.9 0.00 0.00 0.00 95 1017.0
20260502100227 50 0 0.0 0.0 0.00 0.00 0.00 94 1017.0
20260502090105 51 329 0.0 0.0 0.00 0.00 0.00 94 1016.9
20260502080103 52 329 0.0 0.9 0.00 0.00 0.00 93 1016.7
20260502071127 54 328 0.0 0.9 0.00 0.00 0.00 93 1016.7
20260502070227 54 328 0.0 0.9 0.00 0.00 0.00 92 1016.7
20260502070019 54 329 0.0 0.9 0.00 0.00 0.00 92 1017.1
20260502065327 55 0 0.0 0.0 0.00 0.00 0.00 92 1016.8
20260502064605 55 329 0.0 0.0 0.00 0.00 0.00 93 1017.2
20260502064427 55 0 0.0 0.0 0.00 0.00 0.00 93 1016.8
20260502063527 55 0 0.0 0.0 0.00 0.00 0.00 93 1016.9
20260502063006 55 329 0.0 0.0 0.00 0.00 0.00 93 1017.3
20260502061727 55 0 0.0 0.0 0.00 0.00 0.00 92 1016.8
20260502061603 55 329 0.0 0.0 0.00 0.00 0.00 92 1017.3
20260502060827 56 0 0.0 0.0 0.00 0.00 0.00 92 1016.8
20260502060004 55 329 0.0 0.0 0.00 0.00 0.00 92 1017.3
20260502055027 56 328 0.0 0.9 0.00 0.00 0.00 92 1016.9
20260502054503 55 329 0.0 0.0 0.00 0.00 0.00 92 1017.3
20260502054127 56 0 0.0 0.0 0.00 0.00 0.00 92 1016.9
20260502053227 56 0 0.0 0.0 0.00 0.00 0.00 91 1016.9
20260502053003 56 329 0.0 0.0 0.00 0.00 0.00 91 1017.4
20260502052327 56 0 0.0 0.0 0.00 0.00 0.00 91 1016.9
20260502051607 56 329 0.0 0.0 0.00 0.00 0.00 91 1017.3
20260502051427 56 0 0.0 0.0 0.00 0.00 0.00 91 1016.9
20260502050527 56 328 0.0 0.9 0.00 0.00 0.00 91 1016.7
20260502050008 56 329 0.0 0.0 0.00 0.01 0.00 91 1017.1
20260502045627 57 0 0.0 0.0 0.00 0.00 0.00 90 1016.8
20260502044727 57 0 0.0 0.0 0.00 0.00 0.00 90 1016.7
20260502044604 56 329 0.0 0.0 0.00 0.01 0.00 90 1017.1
20260502043827 57 0 0.0 0.0 0.00 0.00 0.00 90 1016.4
20260502043004 57 329 0.0 0.0 0.00 0.01 0.00 89 1016.8
20260502042926 57 0 0.0 0.0 0.00 0.01 0.00 89 1016.4
20260502042026 57 329 0.0 0.9 0.00 0.01 0.00 88 1016.4
20260502041606 57 329 0.0 0.9 0.00 0.01 0.00 88 1016.9
20260502041126 58 328 0.0 0.9 0.00 0.01 0.00 88 1016.5
20260502040227 58 0 0.0 0.0 0.00 0.01 0.00 88 1016.5
20260502040008 58 329 0.0 0.0 0.00 0.02 0.00 88 1016.9
20260502035327 58 0 0.0 0.0 0.00 0.01 0.00 87 1016.5
20260502034504 58 329 0.0 0.0 0.00 0.02 0.00 87 1017.0
20260502034426 58 0 0.0 0.0 0.00 0.01 0.00 87 1016.6
20260502033526 59 0 0.0 0.0 0.00 0.02 0.00 87 1016.5
20260502033102 58 329 0.0 0.0 0.00 0.02 0.00 87 1017.0
20260502032627 59 0 0.0 0.0 0.00 0.02 0.00 88 1016.7
20260502031726 59 0 0.0 0.0 0.00 0.02 0.00 88 1016.6
20260502031504 58 329 0.0 0.9 0.00 0.02 0.00 88 1017.1
20260502030008 59 329 0.0 0.9 0.00 0.02 0.00 87 1016.9
20260502025926 59 328 0.0 0.9 0.00 0.02 0.00 87 1016.5
20260502025026 59 0 0.0 0.0 0.00 0.02 0.00 87 1016.3
20260502024507 59 329 0.0 0.0 0.00 0.02 0.00 86 1016.6
20260502024126 59 0 0.0 0.0 0.00 0.02 0.00 85 1016.1
20260502023226 59 0 0.0 0.0 0.00 0.02 0.00 85 1015.9
20260502023104 59 329 0.0 0.0 0.00 0.02 0.00 85 1016.3
20260502021503 59 329 0.0 0.0 0.00 0.02 0.00 84 1016.0
20260502021426 60 0 0.0 0.0 0.00 0.02 0.00 84 1015.6
20260502020526 60 0 0.0 0.0 0.00 0.02 0.00 82 1015.5
20260502015626 60 0 0.0 0.0 0.00 0.02 0.00 83 1015.4
20260502014726 61 0 0.0 0.0 0.00 0.02 0.00 82 1015.3
20260502014602 60 329 0.0 0.0 0.00 0.02 0.00 82 1015.6
20260502013826 61 0 0.0 0.0 0.00 0.02 0.00 82 1015.2